Tracking 19219 objects as of 19-Jul-2018
HD Live streaming from Space Station
objects crossing your sky now

GORIZONT 2

Track GORIZONT 2 now!
GORIZONT 2 is classified as:


NORAD ID: 11440
Int'l Code: 1979-062A
Perigee: 35,773.2 km
Apogee: 35,806.8 km
Inclination: 12.2 °
Period: 1,435.9 minutes
Semi major axis: 42160 km
RCS: 3.981 m2 (large)
Launch date: July 5, 1979
Source: Commonwealth of Independent States (former USSR) (CIS)
Launch site: TYURATAM MISSILE AND SPACE COMPLEX (TTMTR)
aabbcc
Your satellite tracking list
Your tracking list is empty




NASA's NSSDC Master Catalog

Two Line Element Set (TLE):
1 11440U 79062A   18200.39424497 +.00000008 +00000-0 +00000-0 0  9995
2 11440 012.2337 318.9245 0003984 276.1952 264.7317 01.00285175109041
Source of the keplerian elements: AFSPC